LiveATC.Net - Listen to live air traffic control over the Internet!


ICAO: YPDN  IATA: DRW   Airport: Darwin International Airport
City: Darwin   State/Province: Northern Territory
Country: Australia   Continent: Oceania
YPDN METAR Weather: YPDN 161700Z AUTO 11003KT 9999 // SCT071 SCT081 BKN110 26/24 Q1012
YPDN Flight Activity (FlightAware)

YPDN Gnd/Twr/App/Dep
Feed Status: UP   Listeners: 3
Listen in your browser - HTML5 player (in browser, HTML5)
Click here to listen with your own player (launches your MP3 player)
Archive Access: YPDN Gnd/Twr/App/Dep
FacilityFrequency
Darwin Approach134.100
Darwin Arrival125.200
Darwin Departure119.550
Darwin Ground121.800
Darwin Tower133.100

NOTICE

Unauthorized use prohibited. See LiveATC.net Terms of Service


Airport/ARTCC Code
Frequency Search
(e.g., 124.400, 128.75)
Site-wide search
 


Browse Feeds
Top 50 Feeds
HF Oceanic Feeds
Coverage Map
Bad Weather Areas

LiveATC FAQ
Offer LiveATC feed
Contact LiveATC.net
Press Inquiries

LiveATC on iPhone
LiveATC on Android

Windows Phone
Windows 8/10

LiveATC Mobile
(Mobile browser)

ATC Audio Archives
Interesting Recordings

LiveATC Forums


Home Page
About LiveATC.net
Make a Donation
Terms of Use
Privacy Policy

Canadian Air Freqs

AIRMETs/SIGMETs

FAA Airport Status
NAS Status
Arrival Demand


Server Software By:
Icecast.org
Liquidsoap